Theta_e
346 346 346 347 349 350 350 350 352 353 354 355 355 356 356 355 355 355 355 355 355 355 355 355 354 352 350 346 343 342 341 340 342 344 346 349 351 352 350 349 348 346 342 340 341 341 342 341 339 339 339 338 338 339 339 342 338 325 320 324 327 329 330
347 347 348 347 348 349 350 351 352 353 354 356 356 356 356 356 356 355 355 355 356 355 355 356 356 354 351 348 345 343 341 340 342 344 345 348 350 351 349 348 347 344 342 341 341 342 343 342 341 340 340 337 336 337 338 337 331 322 318 321 322 323 325
348 349 349 349 349 349 349 351 352 354 355 356 357 357 357 357 356 356 355 355 356 356 356 356 356 356 353 351 348 345 342 341 341 344 346 348 349 349 348 348 346 342 339 340 340 342 343 343 342 341 340 338 336 337 336 329 322 318 319 319 319 320 321
347 349 350 350 350 349 349 350 351 353 354 356 356 357 357 357 356 356 355 355 356 356 357 357 357 357 355 353 351 348 344 342 342 344 346 348 348 348 348 348 346 342 339 339 340 342 344 343 342 342 341 340 339 339 336 329 322 319 318 319 319 320 320
347 348 350 350 350 349 350 350 350 352 353 354 356 356 357 357 356 356 356 356 358 358 358 357 357 357 356 354 353 350 346 342 342 344 346 348 349 348 347 346 345 342 340 338 339 342 344 343 342 342 342 341 341 340 339 335 327 320 318 319 320 320 320
348 348 350 350 350 350 350 351 350 350 351 353 354 356 356 357 357 356 356 356 358 359 359 359 358 358 357 356 354 353 349 344 343 344 345 347 348 347 346 345 343 341 339 339 339 341 343 344 343 343 342 342 342 340 338 337 331 322 318 318 319 320 320
348 349 350 350 351 351 350 350 349 349 350 351 353 355 356 357 357 357 356 356 358 359 360 360 359 358 358 357 356 354 350 345 343 344 345 346 346 346 345 344 343 341 339 339 340 340 342 344 344 343 342 342 341 341 338 336 335 328 321 318 319 320 321
348 348 349 350 351 350 347 347 347 347 350 352 353 355 356 357 358 357 356 357 357 359 360 360 359 359 359 359 357 355 350 345 343 343 345 345 344 344 343 343 342 341 340 340 340 341 343 344 345 344 343 342 341 341 339 337 336 334 326 320 319 320 321
347 347 348 349 349 349 346 346 348 349 351 352 354 356 357 358 358 357 357 357 357 358 359 359 359 359 359 360 359 357 352 346 343 343 345 345 343 342 341 341 341 341 339 339 339 341 342 343 344 344 343 342 341 341 340 338 336 336 331 323 318 320 323
348 346 347 349 348 349 348 348 351 351 352 353 353 355 356 357 357 357 357 357 357 358 358 359 360 360 360 360 359 358 354 349 345 344 345 344 342 340 340 340 340 339 338 338 338 340 341 342 343 343 343 343 342 342 341 339 337 337 334 327 320 320 323
349 347 348 349 349 349 350 350 352 352 352 352 352 353 355 357 357 357 357 357 357 358 358 358 359 360 360 360 360 359 356 351 348 345 344 343 341 339 340 339 339 338 337 337 337 338 340 342 343 343 343 342 342 342 342 340 338 337 336 331 323 320 322
348 349 348 349 349 349 349 350 351 351 352 351 351 354 356 357 357 357 357 357 357 358 358 359 360 361 361 361 361 359 357 354 351 347 342 341 339 338 340 340 339 338 336 335 335 337 339 342 343 343 343 342 342 342 342 341 339 338 336 334 327 321 321
347 349 348 349 349 348 349 349 349 350 350 351 353 356 358 358 357 357 358 357 357 357 358 358 360 361 362 362 361 359 357 354 351 346 341 339 337 337 340 341 340 339 336 333 332 334 336 340 342 342 343 343 342 342 342 341 340 340 338 335 331 324 320
348 349 348 349 349 348 349 349 350 352 353 354 355 357 359 358 358 358 358 358 357 357 357 358 360 362 363 362 362 360 356 352 348 344 340 336 336 337 339 340 340 339 338 335 333 331 331 334 337 340 342 343 343 342 342 342 341 341 339 337 335 327 321
350 349 349 349 347 347 347 346 347 351 353 356 358 358 360 359 358 358 357 357 357 357 357 358 360 363 363 362 362 360 356 351 347 344 340 337 337 338 338 339 340 340 340 339 336 333 332 333 335 338 340 342 343 343 343 344 343 341 340 338 336 331 324
349 348 347 347 347 346 343 341 343 344 346 349 352 355 356 357 358 358 358 358 357 357 357 358 360 363 364 363 362 360 357 352 348 346 343 339 338 338 339 339 340 341 342 341 340 340 339 338 339 340 341 342 343 344 344 345 344 343 341 339 338 335 328
350 349 347 347 348 346 343 343 343 343 343 344 345 347 349 351 355 358 358 358 358 357 357 358 360 362 363 363 362 361 359 354 349 347 345 342 341 340 341 342 343 344 345 345 345 346 345 345 344 344 344 344 345 345 346 346 345 344 343 341 340 337 332
351 352 350 348 350 347 345 346 346 346 346 346 346 348 348 351 356 358 359 359 358 358 358 358 359 361 362 363 363 362 361 358 353 351 348 347 346 345 345 347 349 350 350 349 349 350 350 350 349 348 347 347 347 347 347 347 346 346 344 343 341 339 335
351 353 351 348 348 348 346 347 346 346 347 348 349 350 350 353 357 359 360 360 359 359 358 358 358 359 361 362 362 362 361 360 358 355 352 352 351 349 349 353 355 355 353 352 352 352 353 353 352 351 349 349 349 349 348 348 348 348 346 344 342 340 337
348 352 352 347 346 348 349 348 347 346 345 348 349 348 349 354 358 359 360 360 360 359 358 358 358 359 361 361 361 361 360 361 360 358 357 355 354 353 354 355 357 357 356 355 354 353 354 353 353 353 352 351 350 349 349 349 349 349 347 345 343 341 338
339 344 348 346 343 346 350 349 347 347 346 347 348 348 351 355 358 361 361 360 360 360 358 358 357 358 359 359 359 359 359 359 360 360 360 359 358 358 358 358 359 359 358 357 355 354 353 353 353 353 352 352 351 350 350 350 350 349 347 346 344 343 341
336 338 343 347 347 349 351 348 345 345 344 344 346 351 354 356 357 361 361 360 360 359 358 358 357 356 357 357 357 357 357 358 360 361 361 360 360 361 361 361 361 360 359 358 356 355 354 353 353 352 352 352 351 351 351 351 350 349 347 346 345 343 342
332 332 336 341 345 347 348 345 342 342 342 343 345 348 351 353 358 361 361 359 359 359 358 357 356 355 354 354 355 355 355 357 359 361 362 360 360 363 363 363 362 360 360 358 357 356 355 353 353 352 351 351 351 351 351 350 349 347 345 344 342 341 340
329 330 331 333 336 340 342 344 343 341 341 343 344 345 345 349 355 360 361 359 358 358 357 356 356 354 353 352 353 352 354 355 357 360 362 360 360 362 363 363 363 361 360 358 357 356 355 354 353 352 352 352 352 351 350 348 347 345 343 342 340 339 339
330 328 329 331 332 334 340 345 345 343 343 345 344 345 345 346 350 357 360 360 359 357 356 355 354 353 351 350 351 352 353 354 356 359 360 361 360 361 362 363 363 362 361 359 358 357 355 354 354 353 353 352 351 350 349 347 346 344 343 342 340 339 338
338 334 331 330 331 332 337 341 340 338 340 343 345 346 347 347 350 354 357 360 360 359 357 355 353 352 351 349 351 352 352 353 357 359 360 360 360 361 363 364 363 363 362 360 359 358 357 356 354 353 352 351 351 350 348 347 345 343 342 341 340 340 339
338 340 339 336 332 333 337 341 339 335 335 339 344 348 349 351 351 351 353 358 361 360 358 357 355 352 350 350 351 352 353 355 359 360 361 361 361 363 364 365 364 363 362 361 359 358 357 356 354 352 352 351 350 349 347 345 344 342 342 341 340 340 339
334 336 341 342 339 335 334 338 342 342 340 340 344 350 353 355 355 352 353 357 359 359 359 360 359 354 352 352 353 355 358 360 362 362 363 363 364 364 364 365 364 363 362 360 359 357 356 355 354 352 351 349 348 346 345 344 342 342 341 341 340 340 340
336 333 337 341 342 342 340 338 342 347 351 353 355 359 361 361 358 356 355 356 358 358 361 364 362 358 357 357 358 361 364 365 365 364 364 365 365 365 365 365 364 362 360 359 358 357 356 355 353 351 348 347 346 345 344 343 342 341 341 341 340 340 340
342 339 336 337 339 343 348 352 353 356 361 365 363 360 360 361 360 359 358 359 360 362 364 365 364 363 364 364 365 366 367 367 366 365 366 366 366 366 366 364 362 359 358 357 356 355 354 354 352 349 347 346 345 344 343 342 340 339 339 339 339 340 340
346 346 344 341 339 338 341 350 358 362 364 367 365 363 360 359 358 359 361 363 365 366 367 366 366 367 367 367 367 367 367 367 367 366 367 367 366 365 364 361 359 357 355 354 354 352 351 351 349 348 347 345 344 343 341 340 338 337 337 336 337 338 338
348 349 347 345 344 342 338 340 351 359 362 364 366 369 368 364 361 361 363 367 368 368 367 368 369 369 369 369 369 368 368 367 366 366 366 364 363 363 360 357 354 352 351 350 350 348 346 345 344 342 342 342 341 339 337 336 336 336 335 334 335 336 335
348 350 350 349 350 353 351 346 349 356 359 362 365 367 367 367 369 368 367 369 370 369 370 372 371 370 369 368 366 365 365 365 365 363 361 359 358 356 353 349 347 345 345 346 346 345 344 342 341 339 338 339 338 336 334 334 335 335 335 333 333 334 333
349 350 351 351 352 354 356 355 355 357 357 358 359 359 360 364 369 370 370 372 371 370 370 368 366 365 363 361 361 362 362 361 359 355 351 350 350 348 346 345 344 343 343 344 344 345 344 343 341 339 338 339 337 335 335 335 335 335 334 333 332 332 331
349 349 349 350 350 351 354 355 355 356 355 356 357 358 360 363 365 364 363 364 365 365 364 361 359 358 355 354 357 359 357 356 353 346 342 344 345 343 344 345 344 343 343 343 344 345 344 343 342 338 336 336 336 334 335 335 334 335 334 332 330 329 328
349 349 350 350 349 349 351 353 354 355 356 356 357 359 360 360 359 357 356 358 359 360 360 359 357 354 353 353 355 355 353 352 349 342 338 340 341 340 343 345 345 345 345 344 344 343 342 341 338 333 331 333 335 336 335 334 334 334 332 330 328 326 325
346 349 350 349 348 349 350 351 353 355 356 356 356 356 355 355 355 355 356 357 356 355 356 356 355 354 355 356 354 352 350 348 346 344 342 343 343 343 344 346 347 346 345 343 341 340 338 335 332 331 333 335 335 335 335 334 334 333 331 329 328 327 325
340 344 347 346 346 348 349 350 352 354 356 356 355 354 352 353 355 356 355 354 353 352 354 356 354 354 354 352 350 349 348 346 346 346 345 345 346 346 345 345 345 344 341 339 337 336 334 333 333 335 337 337 336 334 334 334 334 334 332 330 328 326 325
Wind_Speed
39 39 40 41 42 42 45 48 48 49 50 50 50 49 49 47 46 45 45 45 45 43 42 42 42 42 42 40 38 36 35 34 32 31 31 29 28 28 27 26 25 24 22 22 23 22 21 21 20 18 18 18 17 16 16 14 13 14 15 16 16 14 11
40 39 40 41 41 41 43 47 48 49 50 50 50 49 49 48 47 46 46 45 45 43 43 42 42 42 42 41 39 38 36 34 33 32 32 30 29 29 29 28 27 25 23 23 23 22 21 21 20 18 19 18 17 16 15 14 13 14 14 16 16 15 13
39 39 40 42 43 43 44 46 47 48 49 49 49 49 49 49 48 47 46 45 44 43 42 42 42 42 42 41 41 39 37 36 34 34 33 32 31 30 29 29 28 26 24 24 24 23 23 23 21 20 19 19 18 18 16 13 13 13 13 15 16 15 14
39 40 42 44 46 48 48 48 47 47 48 48 49 49 49 48 47 46 45 45 44 44 43 43 43 42 42 42 42 41 39 37 35 35 35 33 32 31 31 31 30 28 26 25 25 24 25 25 24 22 21 21 20 19 17 15 14 13 13 15 16 16 15
40 41 43 44 46 48 48 49 49 48 48 48 48 48 47 47 46 46 45 44 44 44 44 43 43 43 43 43 43 42 40 37 36 36 36 34 33 32 33 33 32 31 29 27 27 27 27 27 26 25 24 23 22 21 19 18 16 15 14 14 16 16 16
42 42 43 45 46 48 49 50 51 50 50 49 48 46 46 46 47 47 46 45 43 43 42 43 43 43 44 44 43 43 41 38 37 37 37 36 34 34 35 35 33 32 31 29 29 29 29 28 28 27 26 25 24 23 21 20 18 16 15 14 16 17 17
44 44 45 47 48 50 50 50 50 49 49 48 47 46 46 47 48 48 47 47 45 44 43 44 44 44 44 44 44 43 42 40 38 38 38 37 35 35 36 36 35 33 32 31 31 31 30 29 28 28 27 26 26 25 23 22 20 18 16 15 16 18 18
47 45 47 49 49 50 50 49 49 48 47 46 45 47 47 48 49 49 48 48 46 45 45 45 45 45 45 44 44 44 43 41 39 39 38 37 37 37 37 37 37 35 34 33 33 32 31 30 29 29 29 28 28 27 26 24 22 20 19 18 18 19 19
46 47 48 50 50 51 50 48 47 46 46 47 46 47 47 47 48 49 49 48 47 47 46 46 46 46 45 45 45 45 44 43 41 39 39 39 38 38 39 39 38 36 36 36 35 34 33 32 31 30 30 30 30 29 28 27 25 23 22 20 20 20 20
46 48 50 51 49 48 47 44 43 44 45 47 47 46 46 47 48 48 48 47 47 47 47 46 46 46 46 46 45 45 46 45 43 41 41 40 40 39 39 39 39 38 38 37 37 36 36 34 33 32 32 32 32 31 31 30 28 27 25 22 21 21 21
46 50 49 49 45 41 40 39 41 43 46 48 48 46 46 46 46 47 48 48 47 47 46 46 46 46 46 46 46 46 47 46 45 43 42 42 41 40 40 40 40 40 40 39 39 38 37 36 35 35 34 34 34 33 33 32 31 30 28 24 22 22 22
45 51 47 45 43 39 38 39 42 45 46 47 48 47 46 46 46 46 47 47 46 46 46 46 46 46 47 47 47 48 49 48 46 45 44 43 42 42 41 41 41 41 41 41 41 40 39 38 37 37 36 36 35 34 35 34 33 32 30 26 23 23 24
41 49 45 43 42 40 40 42 44 46 46 47 48 48 47 45 45 45 45 46 46 45 45 45 45 46 46 47 48 49 50 50 49 47 45 43 43 43 43 43 42 42 42 42 42 42 41 40 39 38 37 37 36 36 36 36 35 34 32 29 25 24 25
36 43 43 43 43 42 44 45 46 47 46 46 47 47 47 45 46 46 46 46 46 45 45 44 45 45 46 47 49 50 51 51 50 49 46 44 43 44 45 45 44 44 43 43 43 43 43 42 40 39 39 38 37 37 37 37 37 36 34 32 28 26 26
31 36 36 38 40 42 44 43 43 45 45 45 46 46 46 45 45 46 47 47 46 45 45 44 45 45 46 48 50 51 52 52 51 50 48 46 45 45 46 46 46 45 45 44 44 43 43 42 42 41 40 40 39 38 38 38 38 38 37 35 31 28 27
29 34 37 40 42 44 43 39 38 41 43 43 43 44 45 45 46 47 48 48 47 46 45 44 45 46 47 49 50 51 51 52 52 51 49 48 47 46 46 46 46 47 46 46 45 43 42 42 42 42 42 41 40 39 39 39 39 39 38 36 33 30 27
24 29 33 37 40 40 40 38 38 38 38 37 37 40 43 45 47 48 49 48 48 47 46 45 46 47 48 50 50 50 51 52 52 52 51 50 49 48 47 47 46 47 47 46 45 43 42 41 42 42 42 41 40 39 39 40 40 39 38 37 35 32 28
24 26 27 29 33 36 39 40 38 34 32 33 34 36 40 44 46 48 49 49 49 48 46 46 48 49 50 51 50 50 51 51 51 52 52 52 51 49 48 47 47 46 46 45 44 43 41 40 40 41 41 40 39 39 39 39 39 38 38 37 35 33 29
31 33 36 35 36 40 41 38 35 32 30 32 35 35 36 40 45 48 50 50 50 49 48 48 49 50 51 51 52 52 52 51 51 51 52 52 51 49 48 47 47 46 45 44 43 42 40 39 38 39 39 39 39 39 39 38 38 37 36 36 35 33 30
32 34 40 39 37 40 41 37 34 33 32 34 35 34 33 37 43 47 50 51 50 49 50 50 50 51 52 53 53 54 53 52 51 51 51 50 50 49 48 48 47 45 44 43 42 41 40 39 38 38 38 38 38 38 38 37 36 35 35 35 34 32 29
32 32 38 40 39 41 43 40 38 37 37 37 36 35 36 38 42 46 49 50 51 51 52 52 51 52 53 54 55 55 54 54 53 52 50 49 48 48 47 46 46 45 43 41 41 41 41 41 40 39 38 37 37 37 36 35 34 33 33 33 31 30 29
22 24 28 35 41 46 46 42 38 37 37 38 38 38 40 40 41 46 49 50 51 53 53 53 53 52 53 55 56 56 56 55 54 52 50 48 47 46 45 45 44 43 41 40 40 41 40 40 40 39 38 37 36 35 33 31 30 28 28 28 27 26 27
16 16 19 24 32 39 42 39 34 32 33 36 37 38 40 41 42 45 48 50 52 53 54 54 54 54 53 54 56 57 56 55 54 52 50 48 46 45 44 43 43 41 40 40 41 41 41 40 40 38 37 37 36 34 31 28 27 26 25 25 23 23 25
23 21 21 23 23 25 31 36 34 31 32 34 36 36 38 41 44 45 46 49 52 53 54 55 55 55 55 55 56 57 57 55 54 52 50 48 47 45 44 43 41 39 38 39 40 40 40 39 37 35 34 33 32 30 28 26 25 24 24 23 21 20 22
22 23 22 21 22 23 25 30 31 29 31 34 36 38 39 41 44 46 48 49 52 53 54 56 56 57 57 56 55 56 57 55 53 52 51 50 48 46 44 43 39 36 36 37 37 37 36 35 33 31 29 27 25 23 22 20 19 19 19 19 19 19 19
16 19 22 22 24 24 24 28 31 28 31 39 42 41 42 43 44 46 49 50 53 54 55 57 58 58 59 57 55 55 56 55 53 52 51 50 48 46 44 40 36 34 35 36 35 34 33 30 28 25 22 21 19 18 17 16 14 14 14 15 16 17 18
16 14 16 19 25 27 24 27 34 34 34 41 46 44 43 45 46 46 47 51 53 55 57 58 57 57 58 57 54 54 56 55 54 53 51 49 48 45 41 36 33 33 35 35 34 32 29 27 24 21 18 18 18 17 16 15 12 11 13 15 17 18 19
17 15 14 12 17 26 24 20 29 39 41 43 47 48 48 49 49 46 47 50 52 54 55 54 53 54 55 55 53 53 54 54 53 51 50 48 46 42 37 33 33 34 34 33 32 30 27 26 24 21 19 17 17 16 15 14 12 12 14 16 18 19 20
15 15 16 16 13 15 18 16 23 38 47 49 49 49 48 49 48 45 46 48 50 51 51 50 50 51 52 51 51 51 51 52 51 50 49 46 42 37 34 34 34 33 31 30 29 27 26 26 24 22 19 17 16 15 14 13 12 13 15 17 18 19 19
11 14 16 17 16 13 11 13 20 32 42 45 46 44 43 45 46 45 45 47 47 48 49 48 49 50 50 49 49 49 48 49 48 47 45 41 37 35 34 34 33 31 29 27 26 24 24 25 24 22 20 19 19 17 15 13 13 14 16 17 18 19 20
8 9 10 12 14 16 14 11 16 25 31 33 36 39 42 45 46 45 45 47 47 47 47 49 50 51 50 48 47 46 45 45 43 41 39 37 36 35 35 33 31 29 27 25 24 23 23 23 22 21 21 22 21 19 16 15 15 15 16 16 16 18 20
7 6 7 9 11 14 16 14 14 19 23 24 26 29 32 37 44 48 47 47 47 47 48 50 51 50 47 46 45 44 43 42 40 37 36 35 34 34 32 31 29 27 25 24 24 22 21 21 20 18 18 19 19 16 16 16 16 15 15 15 17 18 19
7 6 7 8 8 9 14 19 20 21 23 24 24 24 21 23 33 45 49 48 47 47 48 49 48 46 45 45 45 43 41 39 38 36 34 33 32 31 29 26 25 24 24 25 25 23 22 22 20 17 17 18 17 15 14 15 14 14 14 15 17 18 19
8 5 6 8 8 8 11 19 22 22 24 25 24 26 24 20 22 32 39 43 45 46 47 46 45 44 42 38 35 34 34 35 36 35 33 32 31 29 26 24 23 23 24 25 24 24 25 23 20 17 18 19 18 16 15 15 14 14 14 15 17 18 19
9 4 6 8 10 11 13 17 19 20 22 22 21 22 23 22 23 25 30 36 43 47 47 45 40 35 30 26 27 30 33 35 35 34 33 32 30 28 26 24 24 25 25 24 23 23 22 20 17 16 18 21 21 20 18 17 14 12 11 13 16 17 18
9 4 4 6 6 8 10 11 13 15 16 17 19 21 22 24 27 29 30 34 39 39 37 33 29 27 26 29 32 34 35 35 34 32 32 32 31 29 28 26 25 24 24 23 22 21 19 18 17 17 19 22 23 22 19 15 11 10 10 12 15 16 16
15 9 9 10 9 3 6 10 13 15 17 18 21 24 22 20 23 26 27 29 30 29 27 28 31 33 35 36 37 35 34 33 33 31 31 31 30 30 29 28 26 24 23 23 23 22 20 20 19 19 20 20 22 22 18 13 11 11 12 13 15 15 14
22 17 14 11 13 11 9 12 14 16 18 19 22 24 21 16 16 20 23 26 27 26 28 33 37 39 39 37 35 33 32 32 32 31 32 31 29 28 27 28 29 28 26 25 23 21 19 20 20 21 20 19 19 21 19 16 13 12 12 13 14 14 12
Wind_Direction
194 193 195 194 195 198 202 203 204 204 204 205 207 207 206 207 208 209 211 212 213 215 215 215 215 215 216 217 217 216 216 216 216 215 215 215 215 216 217 217 216 216 214 212 212 215 216 216 217 211 204 210 218 223 230 232 227 221 215 216 222 224 222
190 191 193 194 194 197 201 203 203 204 205 205 206 206 206 206 207 208 210 211 213 214 216 216 215 215 216 217 217 216 216 216 215 215 216 215 214 214 217 218 219 218 216 215 216 218 219 219 221 216 209 215 221 222 228 230 224 219 211 210 219 223 226
188 190 193 196 199 201 203 202 201 203 205 204 205 206 206 206 206 207 208 210 212 213 215 216 216 217 217 217 217 216 216 216 214 214 216 216 213 213 215 217 221 222 219 216 217 219 219 221 223 221 217 221 224 220 218 215 215 217 209 205 214 218 220
186 191 195 199 203 208 208 205 204 204 205 206 206 207 207 206 206 206 209 211 212 212 214 216 217 217 218 217 216 216 216 216 215 216 218 217 215 214 214 216 221 224 222 218 218 218 218 221 224 222 220 223 225 223 217 214 218 222 213 204 207 211 210
187 193 196 200 203 207 209 209 210 208 207 208 208 208 207 206 206 206 208 212 214 214 215 217 218 217 218 218 216 216 216 216 216 218 218 218 216 214 215 218 221 223 223 220 219 219 218 220 223 223 222 223 226 228 224 220 221 222 219 209 204 205 202
192 195 196 200 204 207 209 211 212 212 211 209 208 208 207 205 206 206 208 211 213 214 214 216 218 217 217 217 216 216 216 216 218 219 219 218 216 214 215 220 223 223 223 222 221 222 220 220 222 223 224 225 228 231 230 227 221 219 222 216 207 204 200
194 197 197 202 205 207 210 212 213 213 212 210 208 208 207 206 207 206 207 209 211 213 213 214 217 218 217 217 215 215 215 217 219 219 218 217 217 216 217 220 223 224 224 224 224 225 225 223 224 225 226 227 230 234 236 235 229 223 223 221 213 205 200
193 196 198 202 204 206 209 211 212 211 209 207 206 206 206 205 206 205 206 207 209 212 213 214 216 218 218 216 214 214 215 217 219 219 217 216 217 217 219 221 224 225 225 226 227 228 229 227 226 228 229 230 233 236 238 240 237 230 226 224 217 208 201
192 196 199 202 204 205 207 209 209 208 206 204 202 203 204 203 203 204 205 206 208 211 214 215 217 217 217 216 214 214 215 218 219 218 215 216 217 218 220 221 223 225 227 228 229 230 231 231 230 231 232 233 235 237 238 240 240 235 230 226 221 212 204
190 195 199 201 203 203 204 204 203 204 204 202 201 201 202 202 202 203 203 205 208 211 214 216 216 216 216 216 215 214 215 217 218 216 215 216 218 220 221 221 223 225 228 229 230 231 232 232 232 233 235 236 236 237 237 239 240 239 234 228 223 218 209
185 193 196 198 199 199 199 199 200 202 204 203 202 202 201 200 200 201 202 205 208 210 213 216 216 215 216 216 214 214 215 216 216 215 216 217 219 221 222 222 223 226 228 230 231 233 234 234 234 234 236 238 239 239 239 239 240 240 237 231 225 221 215
182 190 194 193 193 192 194 199 202 202 203 203 201 200 201 200 200 201 202 204 206 209 212 214 214 214 215 215 214 214 214 215 214 215 216 218 220 222 222 222 224 227 229 230 231 233 234 235 236 236 237 239 241 241 241 241 241 240 239 234 227 224 219
183 186 190 189 187 187 192 199 202 201 202 203 200 198 200 200 199 200 201 202 205 208 210 213 214 213 214 215 215 214 214 214 214 215 217 220 222 222 221 222 225 227 230 232 232 233 234 235 237 239 239 240 241 242 243 242 241 240 239 236 231 227 222
182 182 184 183 181 184 190 195 197 198 199 200 199 197 198 201 201 201 201 202 203 206 209 211 212 212 213 215 216 215 215 215 215 216 219 222 223 223 222 223 224 227 230 232 232 234 235 237 238 239 239 240 241 242 243 242 240 239 239 236 233 229 225
171 174 177 177 178 184 190 194 196 197 199 199 196 195 196 200 202 201 201 202 202 205 208 210 211 211 212 215 216 216 216 215 216 217 219 222 223 223 224 224 225 227 229 231 233 235 236 237 238 239 240 240 241 242 242 241 240 240 239 237 234 231 229
167 170 173 177 183 189 191 195 197 198 200 200 199 198 199 202 202 201 201 201 202 204 207 209 210 210 210 214 217 217 216 216 216 217 219 222 223 225 225 225 226 226 228 231 233 234 235 235 237 238 240 241 241 241 241 241 241 241 240 239 237 235 233
170 174 178 181 186 191 194 197 199 200 200 201 202 203 203 204 204 203 202 202 203 205 206 208 210 210 211 214 217 217 216 216 216 217 218 221 223 225 225 226 226 226 227 229 232 233 234 234 236 238 239 240 241 241 242 242 243 242 241 240 238 236 236
168 176 186 189 188 192 197 200 201 202 203 204 204 204 205 206 204 202 202 202 204 205 205 207 210 211 212 213 216 217 216 216 217 218 219 220 221 224 225 226 225 225 225 227 230 232 233 234 236 238 239 240 241 242 243 244 244 243 242 240 239 236 235
171 179 185 191 195 197 200 201 200 201 203 206 206 207 209 210 207 204 204 204 205 204 204 207 210 211 212 213 215 217 217 217 218 219 219 219 220 223 225 224 224 224 225 226 228 230 232 234 236 237 238 239 241 243 244 245 244 243 242 241 239 236 235
186 185 182 188 198 202 202 201 199 199 203 207 208 207 209 212 212 210 208 206 204 203 204 207 210 212 213 213 215 217 218 218 219 219 219 219 220 221 223 223 224 224 225 225 227 229 232 234 236 237 238 240 242 244 245 245 244 243 242 241 238 237 236
208 203 190 190 200 206 204 201 199 199 203 207 208 206 206 210 214 212 208 205 203 204 205 207 209 212 213 213 214 216 217 218 219 218 218 219 219 220 221 222 223 224 224 225 228 230 232 234 236 238 239 240 241 243 244 244 243 242 241 239 238 238 238
225 222 208 199 201 204 203 201 202 204 207 206 206 206 206 208 211 209 207 205 204 204 205 206 208 212 214 214 215 216 217 217 217 217 216 217 218 218 218 220 221 223 224 226 229 231 232 233 236 238 240 241 242 242 242 241 240 239 240 240 240 240 238
252 252 241 223 213 208 207 208 211 214 214 208 204 206 208 208 208 207 206 206 205 204 205 206 208 212 215 216 216 217 217 216 215 214 213 215 216 216 216 218 220 222 225 227 228 230 231 233 235 238 239 241 241 240 239 239 239 240 242 243 242 239 235
263 263 260 250 239 229 220 217 216 218 219 214 209 208 208 206 206 206 205 205 205 205 205 206 208 211 215 218 217 217 216 215 213 211 210 211 214 215 216 217 219 221 224 227 229 231 233 235 236 238 239 240 240 240 240 241 243 244 244 243 240 235 232
275 259 257 254 249 245 232 220 217 221 223 222 218 213 207 205 204 204 204 205 205 205 206 207 208 210 214 218 218 216 214 213 211 209 208 210 212 215 216 216 218 221 225 227 229 231 233 234 236 237 238 239 241 242 241 240 239 240 239 237 234 231 229
318 278 268 262 254 249 233 215 215 225 232 231 226 216 208 205 203 202 204 205 204 205 206 208 210 210 213 216 217 214 212 211 209 207 208 210 212 214 215 215 217 221 223 224 226 229 231 233 234 235 236 238 238 236 235 234 232 229 226 224 224 224 222
338 312 287 267 250 244 232 215 214 221 230 234 229 219 210 206 203 203 204 205 204 206 208 209 210 210 211 214 215 213 211 209 207 206 207 209 211 212 211 212 216 219 220 220 221 223 226 228 229 230 229 228 227 226 227 230 227 219 214 213 215 218 220
326 321 316 299 254 237 233 231 224 220 220 224 223 217 211 206 203 203 203 204 205 207 208 207 207 209 210 211 211 210 207 204 202 203 204 206 208 208 207 209 214 215 216 218 218 217 218 220 223 223 218 215 216 219 224 224 219 213 212 214 216 219 221
318 303 302 315 303 253 234 236 233 220 214 213 213 210 207 204 204 205 204 206 208 207 205 204 205 206 207 206 205 202 198 196 196 198 200 201 201 203 204 207 209 210 213 215 215 213 212 213 213 210 206 205 208 214 219 219 213 211 215 220 221 220 221
317 302 289 290 300 290 253 226 217 211 208 208 209 210 209 208 207 207 207 209 207 204 202 202 203 204 202 199 196 192 189 189 191 193 195 195 196 199 203 205 207 208 208 209 208 208 207 207 207 204 203 206 208 210 216 218 212 209 213 218 219 217 216
311 304 292 281 280 279 271 244 213 205 204 206 210 212 213 212 210 209 209 208 204 200 200 200 200 199 196 191 187 183 182 183 185 186 188 190 195 199 202 205 203 199 198 200 202 203 203 203 204 207 211 214 212 212 215 213 206 202 202 205 207 207 207
301 276 272 279 273 261 254 246 231 217 214 217 219 217 215 215 213 210 206 203 200 199 198 196 194 191 186 181 178 177 177 177 177 180 184 189 194 198 199 199 195 190 190 194 195 194 191 189 189 195 205 208 205 207 210 206 200 197 196 198 199 197 197
319 290 268 264 258 241 228 224 223 221 219 225 229 226 225 228 218 208 202 198 196 194 191 187 183 178 171 168 168 169 171 174 176 179 182 184 186 188 187 185 184 183 185 188 187 184 182 182 180 183 192 198 199 204 208 202 195 195 197 198 199 196 195
343 322 297 274 260 250 231 219 215 214 215 221 226 224 225 229 213 195 187 183 179 175 170 164 159 155 152 153 159 165 171 176 175 172 172 172 173 174 173 173 176 180 184 187 189 188 185 183 182 185 192 198 201 206 210 206 199 197 200 202 203 200 197
8 346 316 293 273 267 256 236 225 222 218 216 215 208 201 201 195 178 162 155 153 152 149 144 143 146 150 158 166 170 171 169 167 165 166 166 167 169 171 174 179 181 182 185 190 192 189 187 191 199 203 204 206 209 212 208 200 197 204 208 204 200 198
25 12 13 354 312 275 257 237 221 214 203 190 184 177 171 176 181 174 158 149 149 151 152 151 153 159 164 165 166 165 163 162 163 165 168 168 171 175 176 176 179 182 182 184 188 192 195 198 205 208 204 201 206 213 216 212 201 195 202 203 200 199 202
42 61 66 36 16 38 156 164 169 173 170 163 159 155 150 156 164 162 159 160 160 162 166 166 164 161 161 163 164 163 163 166 167 168 170 172 177 180 176 173 174 180 186 191 194 197 198 199 199 196 192 195 206 214 215 212 207 204 203 199 196 197 199
45 61 72 45 19 33 90 126 139 148 153 154 152 150 148 150 154 155 160 164 164 164 165 165 164 161 161 163 165 165 168 172 173 173 174 174 176 179 180 178 178 179 182 187 191 194 192 187 186 187 190 198 209 212 210 205 202 204 206 199 194 192 190